CW1248 Weather Reports


time (UTC)temp
C
wind
direction
speed
KPH
gust
KPH
rain 1hr
cm
rain 24hr
cm
rain mn
cm
humidity
%
barometer
mb
20260502213012 19 265 17.7 33.8 0.00 0.00 0.00 31 1012.8
20260502212507 18 259 16.1 35.4 0.00 0.00 0.00 34 1012.9
20260502212006 18 269 22.5 35.4 0.00 0.00 0.00 33 1013.1
20260502211516 18 259 16.1 32.2 0.00 0.00 0.00 34 1013.0
20260502211003 18 261 11.3 29.0 0.00 0.00 0.00 33 1013.0
20260502210505 18 240 14.5 30.6 0.00 0.00 0.00 37 1013.2
20260502210011 18 254 19.3 45.1 0.00 0.00 0.00 31 1013.3
20260502205505 18 219 17.7 45.1 0.00 0.00 0.00 33 1013.3
20260502205006 18 245 14.5 30.6 0.00 0.00 0.00 32 1013.5
20260502204512 18 221 16.1 30.6 0.00 0.00 0.00 32 1013.6
20260502204002 18 241 16.1 27.4 0.00 0.00 0.00 33 1013.6
20260502203508 18 221 14.5 25.7 0.00 0.00 0.00 34 1013.7
20260502203018 18 223 11.3 27.4 0.00 0.00 0.00 33 1013.8
20260502202504 18 218 14.5 32.2 0.00 0.00 0.00 33 1013.8
20260502202006 18 231 16.1 32.2 0.00 0.00 0.00 34 1014.0
20260502201517 17 192 11.3 29.0 0.00 0.00 0.00 32 1014.2
20260502201006 17 243 11.3 29.0 0.00 0.00 0.00 40 1014.3
20260502200506 18 269 9.7 35.4 0.00 0.00 0.00 32 1014.4
20260502200016 17 273 19.3 35.4 0.00 0.00 0.00 33 1014.7
20260502195508 17 207 9.7 30.6 0.00 0.00 0.00 35 1014.6
20260502195004 17 221 16.1 32.2 0.00 0.00 0.00 33 1014.9
20260502194526 17 240 19.3 32.2 0.00 0.00 0.00 33 1015.1
20260502194007 17 249 14.5 33.8 0.00 0.00 0.00 34 1015.0
20260502193507 17 215 8.0 33.8 0.00 0.00 0.00 33 1014.9
20260502193015 17 250 19.3 33.8 0.00 0.00 0.00 33 1015.2
20260502192506 17 194 8.0 24.1 0.00 0.00 0.00 33 1015.0
20260502192006 16 271 14.5 25.7 0.00 0.00 0.00 33 1015.3
20260502191512 16 226 12.9 25.7 0.00 0.00 0.00 34 1015.4
20260502191007 16 221 9.7 20.9 0.00 0.00 0.00 33 1015.4
20260502190508 16 306 9.7 40.2 0.00 0.00 0.00 34 1015.5
20260502190018 16 240 16.1 40.2 0.00 0.00 0.00 34 1015.7
20260502185507 16 221 9.7 27.4 0.00 0.00 0.00 34 1015.7
20260502185006 16 216 11.3 27.4 0.00 0.00 0.00 34 1015.8
20260502184514 16 194 8.0 30.6 0.00 0.00 0.00 40 1015.8
20260502184005 16 250 12.9 30.6 0.00 0.00 0.00 35 1016.0
20260502183507 15 254 4.8 20.9 0.00 0.00 0.00 36 1016.0
20260502183020 15 249 12.9 29.0 0.00 0.00 0.00 35 1016.1
20260502182506 16 309 16.1 29.0 0.00 0.00 0.00 34 1016.3
20260502182007 15 250 11.3 20.9 0.00 0.00 0.00 37 1016.3
20260502181528 16 292 9.7 29.0 0.00 0.00 0.00 36 1016.4
20260502181007 15 246 17.7 29.0 0.00 0.00 0.00 36 1016.5
20260502180505 15 252 14.5 24.1 0.00 0.00 0.00 38 1016.5
20260502170508 14 249 12.9 22.5 0.00 0.00 0.00 39 1017.6
20260502164008 13 212 8.0 25.7 0.00 0.00 0.00 37 1017.9
20260502163505 13 247 14.5 25.7 0.00 0.00 0.00 37 1017.9
20260502163036 13 236 14.5 25.7 0.00 0.00 0.00 40 1018.0
20260502162510 13 244 12.9 22.5 0.00 0.00 0.00 40 1018.1
20260502162010 13 247 11.3 22.5 0.00 0.00 0.00 38 1018.1
20260502161522 13 249 11.3 22.5 0.00 0.00 0.00 41 1018.3
20260502161006 12 254 8.0 24.1 0.00 0.00 0.00 41 1018.3
20260502160506 12 250 12.9 27.4 0.00 0.00 0.00 39 1018.2
20260502152002 11 286 14.5 25.7 0.00 0.00 0.00 48 1018.9
20260502151515 11 281 9.7 22.5 0.00 0.00 0.00 46 1018.9
20260502151003 11 280 11.3 25.7 0.00 0.00 0.00 46 1018.9
20260502150503 11 268 9.7 25.7 0.00 0.00 0.00 48 1018.9
20260502130508 4 291 6.4 16.1 0.00 0.00 0.00 66 1019.3
20260502123501 3 250 4.8 14.5 0.00 0.00 0.00 72 1019.4
20260502123022 2 241 3.2 14.5 0.00 0.00 0.00 72 1019.4
20260502122506 2 235 6.4 12.9 0.00 0.00 0.00 72 1019.3
20260502122004 2 234 6.4 16.1 0.00 0.00 0.00 73 1019.3
20260502121510 2 221 6.4 16.1 0.00 0.00 0.00 74 1019.3
20260502121005 2 242 8.0 12.9 0.00 0.00 0.00 74 1019.3
20260502120507 2 250 6.4 12.9 0.00 0.00 0.00 75 1019.3
20260502115506 1 225 8.0 14.5 0.00 0.00 0.00 74 1019.2
20260502115009 1 249 8.0 12.9 0.00 0.00 0.00 74 1019.2
20260502114508 1 235 6.4 12.9 0.00 0.00 0.00 73 1019.1
20260502114002 1 262 8.0 12.9 0.00 0.00 0.00 74 1019.1
20260502113504 1 250 6.4 12.9 0.00 0.00 0.00 74 1019.1
20260502113010 1 240 8.0 11.3 0.00 0.00 0.00 74 1019.1
20260502112502 1 240 6.4 11.3 0.00 0.00 0.00 74 1019.1
20260502112006 1 234 4.8 12.9 0.00 0.00 0.00 73 1019.1
20260502111522 1 273 6.4 12.9 0.00 0.00 0.00 73 1019.1
20260502111007 1 248 6.4 12.9 0.00 0.00 0.00 73 1019.0
20260502110504 1 228 6.4 14.5 0.00 0.00 0.00 73 1019.2
20260502110021 1 250 8.0 14.5 0.00 0.00 0.00 73 1019.2
20260502105507 1 221 8.0 12.9 0.00 0.00 0.00 74 1019.1
20260502105002 1 238 6.4 12.9 0.00 0.00 0.00 75 1019.1
20260502104511 1 241 6.4 12.9 0.00 0.00 0.00 75 1019.2
20260502104002 1 247 4.8 11.3 0.00 0.00 0.00 75 1019.2
20260502103502 1 231 6.4 9.7 0.00 0.00 0.00 75 1019.1
20260502103010 1 229 4.8 8.0 0.00 0.00 0.00 74 1019.1
20260502102506 1 234 4.8 8.0 0.00 0.00 0.00 74 1019.1
20260502102005 1 205 4.8 8.0 0.00 0.00 0.00 74 1019.1
20260502101505 2 250 4.8 8.0 0.00 0.00 0.00 73 1019.0
20260502101003 2 250 3.2 8.0 0.00 0.00 0.00 73 1019.0
20260502100506 2 245 3.2 8.0 0.00 0.00 0.00 73 1019.0
20260502091518 3 243 4.8 8.0 0.00 0.00 0.00 68 1019.1
20260502091008 3 255 3.2 9.7 0.00 0.00 0.00 67 1019.1
20260502090506 3 259 4.8 9.7 0.00 0.00 0.00 67 1019.1
20260502071512 3 259 4.8 9.7 0.00 0.00 0.00 65 1019.2
20260502071006 3 261 4.8 9.7 0.00 0.00 0.00 67 1019.2
20260502070508 3 254 4.8 9.7 0.00 0.00 0.00 68 1019.2
20260502070027 3 255 4.8 8.0 0.00 0.00 0.00 69 1019.2
20260502065507 3 235 4.8 11.3 0.00 0.00 0.00 70 1019.3
20260502065007 3 228 4.8 11.3 0.00 0.00 0.00 71 1019.3
20260502064526 3 237 4.8 8.0 0.00 0.00 0.00 74 1019.3
20260502064005 3 244 4.8 8.0 0.00 0.00 0.00 74 1019.4
20260502063506 3 247 4.8 8.0 0.00 0.00 0.00 74 1019.4
20260502063016 3 221 3.2 6.4 0.00 0.00 0.00 74 1019.4
20260502062510 3 231 3.2 8.0 0.00 0.00 0.00 74 1019.3
20260502062006 3 242 3.2 8.0 0.00 0.00 0.00 73 1019.4
20260502061532 2 228 4.8 8.0 0.00 0.00 0.00 72 1019.4
20260502061007 2 243 4.8 8.0 0.00 0.00 0.00 72 1019.4
20260502060503 2 228 4.8 8.0 0.00 0.00 0.00 74 1019.4
20260502060006 2 228 4.8 8.0 0.00 0.00 0.00 74 1019.4
20260502055504 2 221 4.8 8.0 0.00 0.00 0.00 76 1019.4
20260502055004 2 236 4.8 6.4 0.00 0.00 0.00 76 1019.4
20260502054512 3 247 3.2 6.4 0.00 0.00 0.00 76 1019.4
20260502054007 3 230 3.2 6.4 0.00 0.00 0.00 76 1019.4
20260502053503 3 232 3.2 6.4 0.00 0.00 0.00 76 1019.4
20260502053010 3 254 3.2 4.8 0.00 0.00 0.00 75 1019.4
20260502052507 3 230 3.2 6.4 0.00 0.00 0.00 75 1019.4
20260502052003 3 217 3.2 6.4 0.00 0.00 0.00 74 1019.4
20260502051508 3 221 1.6 4.8 0.00 0.00 0.00 75 1019.5
20260502051002 3 221 3.2 4.8 0.00 0.00 0.00 74 1019.5
20260502050503 3 238 3.2 4.8 0.00 0.00 0.00 74 1019.5
20260502050007 3 232 3.2 4.8 0.00 0.00 0.00 74 1019.5
20260502045506 3 242 3.2 6.4 0.00 0.00 0.00 74 1019.4
20260502045004 3 250 3.2 6.4 0.00 0.00 0.00 73 1019.4
20260502044504 3 232 3.2 6.4 0.00 0.00 0.00 72 1019.4
20260502044003 3 238 3.2 6.4 0.00 0.00 0.00 71 1019.4
20260502043504 3 241 3.2 6.4 0.00 0.00 0.00 71 1019.4
20260502043024 3 231 3.2 6.4 0.00 0.00 0.00 70 1019.4
20260502042504 3 238 3.2 6.4 0.00 0.00 0.00 69 1019.3
20260502042006 3 252 3.2 6.4 0.00 0.00 0.00 69 1019.3
20260502041516 3 221 3.2 6.4 0.00 0.00 0.00 69 1019.2
20260502041003 3 232 4.8 8.0 0.00 0.00 0.00 68 1019.2
20260502040504 3 225 3.2 8.0 0.00 0.00 0.00 67 1019.3
20260502040013 4 232 4.8 6.4 0.00 0.00 0.00 65 1019.3
20260502035503 4 215 3.2 4.8 0.00 0.00 0.00 63 1019.2
20260502035005 4 238 3.2 4.8 0.00 0.00 0.00 62 1019.2
20260502034512 4 225 3.2 4.8 0.00 0.00 0.00 60 1019.3
20260502034007 5 225 3.2 4.8 0.00 0.00 0.00 60 1019.4
20260502033502 5 225 3.2 6.4 0.00 0.00 0.00 60 1019.4
20260502033017 5 236 3.2 6.4 0.00 0.00 0.00 59 1019.3
20260502032504 5 234 3.2 8.0 0.00 0.00 0.00 59 1019.4
20260502032003 5 236 3.2 8.0 0.00 0.00 0.00 59 1019.4
20260502031504 5 241 3.2 6.4 0.00 0.00 0.00 59 1019.4
20260502031004 5 265 3.2 6.4 0.00 0.00 0.00 57 1019.4
20260502030504 5 254 3.2 6.4 0.00 0.00 0.00 55 1019.4
20260502030009 5 265 3.2 9.7 0.00 0.00 0.00 53 1019.4
20260502025503 5 254 3.2 12.9 0.00 0.00 0.00 51 1019.4
20260502025003 5 257 4.8 12.9 0.00 0.00 0.00 51 1019.4
20260502024515 6 265 3.2 12.9 0.00 0.00 0.00 50 1019.4
20260502024002 6 268 4.8 11.3 0.00 0.00 0.00 49 1019.4
20260502023503 6 265 4.8 11.3 0.00 0.00 0.00 47 1019.4
20260502023014 6 273 4.8 11.3 0.00 0.00 0.00 46 1019.4
20260502022508 6 259 3.2 9.7 0.00 0.00 0.00 46 1019.4
20260502022006 6 273 3.2 9.7 0.00 0.00 0.00 46 1019.3
20260502021505 6 265 3.2 9.7 0.00 0.00 0.00 45 1019.3
20260502021001 7 280 4.8 9.7 0.00 0.00 0.00 44 1019.3
20260502020503 7 265 3.2 6.4 0.00 0.00 0.00 44 1019.2
20260502020010 7 265 3.2 6.4 0.00 0.00 0.00 43 1019.1
20260502015506 7 265 1.6 4.8 0.00 0.00 0.00 42 1019.1
20260502015006 7 286 1.6 4.8 0.00 0.00 0.00 40 1019.0
20260502014507 8 291 3.2 4.8 0.00 0.00 0.00 40 1018.9
20260502014003 8 291 1.6 4.8 0.00 0.00 0.00 39 1018.9
20260502013508 8 279 1.6 4.8 0.00 0.00 0.00 39 1018.9
20260502013025 8 273 1.6 4.8 0.00 0.00 0.00 39 1018.9
20260502012502 8 301 1.6 4.8 0.00 0.00 0.00 40 1018.9
20260502012006 9 286 1.6 11.3 0.00 0.00 0.00 38 1018.9
20260502011509 9 332 1.6 12.9 0.00 0.00 0.00 37 1018.9
20260502011003 9 298 3.2 12.9 0.00 0.00 0.00 36 1018.9
20260502010504 10 294 3.2 11.3 0.00 0.00 0.00 36 1018.8
20260502010015 10 319 3.2 14.5 0.00 0.00 0.00 36 1018.9
20260502005508 10 291 8.0 14.5 0.00 0.00 0.00 35 1018.9
20260502005007 10 282 6.4 17.7 0.00 0.00 0.00 35 1018.9
20260502004514 10 284 6.4 17.7 0.00 0.00 0.00 34 1018.9
20260502004007 10 267 8.0 17.7 0.00 0.00 0.00 35 1018.8
20260502003505 10 9 6.4 17.7 0.00 0.00 0.00 34 1018.8
20260502003018 10 306 8.0 16.1 0.00 0.00 0.00 36 1018.9
20260502002503 10 221 6.4 16.1 0.00 0.00 0.00 35 1018.8
20260502002007 10 311 4.8 14.5 0.00 0.00 0.00 34 1018.8
20260502001510 10 254 4.8 12.9 0.00 0.00 0.00 37 1018.9
20260502001002 10 325 3.2 14.5 0.00 0.00 0.00 36 1018.9
20260502000506 10 241 6.4 22.5 0.00 0.00 0.00 36 1018.7
20260502000014 10 298 11.3 22.5 0.00 0.00 0.00 34 1018.7
20260501235503 10 319 8.0 17.7 0.00 0.00 0.00 35 1018.7
20260501235007 11 313 6.4 17.7 0.00 0.00 0.00 33 1018.7
20260501234522 11 281 6.4 24.1 0.00 0.00 0.00 33 1018.7
20260501234003 11 243 8.0 24.1 0.00 0.00 0.00 33 1018.8
20260501233506 11 315 12.9 24.1 0.00 0.00 0.00 36 1018.8
20260501233022 12 261 9.7 24.1 0.00 0.00 0.00 33 1018.9
20260501232502 12 239 16.1 24.1 0.00 0.00 0.00 33 1018.8
20260501232003 12 294 9.7 16.1 0.00 0.00 0.00 33 1018.6
20260501231512 12 277 4.8 14.5 0.00 0.00 0.00 34 1018.7
20260501231004 11 51 6.4 16.1 0.00 0.00 0.00 34 1018.7
20260501230503 11 178 1.6 16.1 0.00 0.00 0.00 34 1018.8
20260501230016 11 270 9.7 16.1 0.00 0.00 0.00 36 1018.7
20260501225506 10 317 4.8 14.5 0.00 0.00 0.00 40 1018.9
20260501225005 10 321 4.8 16.1 0.00 0.00 0.00 36 1018.9
20260501224512 10 284 8.0 16.1 0.00 0.00 0.00 36 1019.0
20260501224005 10 257 4.8 14.5 0.00 0.00 0.00 36 1018.9
20260501223506 11 289 4.8 20.9 0.00 0.00 0.00 36 1018.9
20260501223011 11 292 6.4 25.7 0.00 0.00 0.00 34 1018.8
20260501222503 11 282 11.3 25.7 0.00 0.00 0.00 33 1018.9
20260501222007 12 269 9.7 22.5 0.00 0.00 0.00 33 1018.9
20260501221517 12 9 4.8 22.5 0.00 0.00 0.00 33 1019.0
20260501221002 12 298 9.7 20.9 0.00 0.00 0.00 37 1018.9
20260501220508 11 13 4.8 19.3 0.00 0.00 0.00 39 1018.8
20260501220020 11 331 11.3 24.1 0.00 0.00 0.00 33 1018.9
20260501215505 11 265 9.7 24.1 0.00 0.00 0.00 34 1018.9
20260501215006 12 254 12.9 24.1 0.00 0.00 0.00 35 1018.9
20260501214523 12 269 12.9 25.7 0.00 0.00 0.00 36 1018.7
20260501214007 12 302 9.7 25.7 0.00 0.00 0.00 34 1018.7
20260501213504 12 336 16.1 25.7 0.00 0.00 0.00 33 1018.7